Content
SEND FEEDBACK

Daily
Averages
Monthly
Summary
United States of America

MALDEN, MISSOURI


Home > North America > United States > Missouri
Elevation: 295 feet     Latitude: 36 36N     Longitude: 089 59W

WEATHER
 
SELECT A DAY
Number of Records: 212,651;   Date Range: 1/1/95 - 12/18/14
 
SHARE

PRINT THIS DATA

[ ← Previous Day ]
WEATHER ALMANAC - APRIL 28, 2014
[ Next Day → ]
[ °C ]   °F
Weather ElementAverageHighLow
Temperature65.1 °F77 °F (2:53 pm)60.1 °F (3:21 am)
Dewpoint55.3 °F64 °F (1:42 pm)37.9 °F (6:53 pm)
Humidity73.4 %87 % (1:21 am)25 % (6:53 pm)
Barometer29.55 in29.63 in (3:36 am)29.43 in (2:53 pm)
Wind Speed10.8 mph18.4 mph (1:53 pm)
Wind Gust29.9 mph (4:53 pm)
Weather ElementAverage
Visibility7.9 mi
Wind DirectionSE (139.2 °)

Weather ElementTotal
Precipitation6.52 in
Cooling Degree Days3.6 (Base 65)
Growing Degree Days18.6 (Base 50)
Averaged from 51 records on April 28, 2014
WEATHER CONDITIONS BREAKOUT
WIND DIRECTION BREAKOUT
WEATHER BY HOUR - APRIL 28, 2014
[ °C ]   °F
Local TimeTemperatureDewpointHumidityBarometerVisibilityWind DirectionWind SpeedGust SpeedPrecipitationEventsConditions
12:29 AM64.0 °F59.0 °F84 %29.59 in3.0 miSE (130°)11.5 mph0.29 inRain-ThunderstormHeavy Rain
12:41 AM64.0 °F59.0 °F84 %29.57 in10.0 miESE (110°)11.5 mph0.30 inRain-ThunderstormLight Rain
1:12 AM64.0 °F59.0 °F84 %29.57 in4.0 miEast (90°)9.2 mph19.6 mph0.08 inRain-ThunderstormHeavy Thunderstorms and Rain
1:18 AM64.0 °F59.0 °F84 %29.58 in2.5 miEast (100°)10.4 mph18.4 mph0.13 inRain-ThunderstormHeavy Thunderstorms and Rain
1:21 AM63.0 °F59.0 °F87 %29.60 in1.8 miENE (70°)6.9 mph18.4 mph0.20 inRain-ThunderstormHeavy Thunderstorms and Rain
1:41 AM63.0 °F57.9 °F84 %29.57 in1.8 miEast (80°)16.1 mph21.9 mph0.73 inRain-ThunderstormHeavy Rain
1:46 AM63.0 °F57.9 °F84 %29.55 in3.0 miEast (80°)13.8 mph0.75 inRain-ThunderstormRain
1:53 AM63.0 °F57.9 °F84 %29.56 in6.0 miNE (40°)11.5 mph21.9 mph0.77 inRain-ThunderstormLight Rain
1:56 AM63.0 °F57.9 °F84 %29.57 in7.0 miVariable3.5 mph0.00 inRain-ThunderstormThunderstorms and Rain
2:03 AM63.0 °F57.9 °F84 %29.56 in2.5 miEast (80°)8.1 mph0.03 inRain-ThunderstormThunderstorms and Rain
2:11 AM62.1 °F57.9 °F86 %29.58 in1.0 miEast (100°)9.2 mph0.38 inRain-ThunderstormHeavy Thunderstorms and Rain
2:15 AM62.1 °F57.9 °F86 %29.59 in0.8 miNNE (20°)9.2 mph0.61 inRain-ThunderstormHeavy Thunderstorms and Rain
2:22 AM62.1 °F57.9 °F86 %29.58 in1.5 miEast (90°)10.4 mph0.72 inRain-ThunderstormHeavy Thunderstorms and Rain
2:45 AM61.0 °F55.0 °F81 %29.61 in3.0 miWest (280°)11.5 mph1.20 inRain-ThunderstormLight Thunderstorms and Rain
3:01 AM61.0 °F55.0 °F81 %29.61 in8.0 miSouth (170°)3.5 mph0.01 inRain-ThunderstormLight Rain
3:21 AM60.1 °F55.0 °F83 %29.61 in5.0 miESE (120°)8.1 mph0.03 inRain-ThunderstormThunderstorms and Rain
3:36 AM60.1 °F55.0 °F83 %29.63 in9.0 miSE (130°)11.5 mph0.06 inRain-ThunderstormLight Rain
3:46 AM60.1 °F55.0 °F83 %29.61 in7.0 miSE (130°)9.2 mph0.07 inRainRain
3:53 AM60.1 °F55.0 °F83 %29.61 in7.0 miSE (140°)11.5 mph0.07 inRainLight Rain
3:59 AM60.1 °F55.0 °F83 %29.62 in9.0 miSE (130°)9.2 mph0.01 inRain-ThunderstormLight Thunderstorms and Rain
4:20 AM60.1 °F55.0 °F83 %29.58 in10.0 miESE (120°)15.0 mph0.02 inRainLight Rain
4:32 AM60.1 °F55.0 °F83 %29.57 in10.0 miESE (120°)17.3 mph23.0 mph0.03 inRain-ThunderstormLight Rain
4:53 AM61.0 °F55.0 °F81 %29.56 in10.0 miESE (120°)8.1 mph18.4 mph0.03 inRainLight Rain
5:53 AM60.1 °F55.0 °F83 %29.55 in10.0 miESE (110°)8.1 mph0.00 inMostly Cloudy
6:17 AM61.0 °F54.0 °F78 %29.56 in10.0 miESE (120°)10.4 mphThunderstormMostly Cloudy
6:34 AM61.0 °F54.0 °F78 %29.54 in10.0 miESE (110°)11.5 mphThunderstormThunderstorm
6:53 AM61.0 °F55.0 °F81 %29.55 in10.0 miESE (110°)8.1 mph0.00 inRain-ThunderstormLight Thunderstorms and Rain
7:05 AM61.0 °F55.0 °F81 %29.57 in10.0 miCalm0.00 inThunderstormMostly Cloudy
7:12 AM61.0 °F55.0 °F81 %29.57 in10.0 miNNE (30°)4.6 mph0.00 inOvercast
7:53 AM62.1 °F55.9 °F80 %29.56 in10.0 miESE (110°)13.8 mph20.7 mph0.00 inOvercast
8:34 AM62.1 °F55.9 °F80 %29.53 in10.0 miEast (100°)10.4 mph17.3 mphOvercast
9:03 AM64.0 °F57.0 °F78 %29.54 in10.0 miSE (130°)15.0 mph23.0 mphOvercast
9:18 AM64.0 °F57.0 °F78 %29.53 in10.0 miSE (140°)15.0 mphOvercast
9:37 AM64.9 °F57.9 °F78 %29.53 in10.0 miSSE (150°)17.3 mph21.9 mphScattered Clouds
9:53 AM66.0 °F57.9 °F75 %29.54 in10.0 miSSE (160°)15.0 mphPartly Cloudy
10:53 AM69.1 °F60.1 °F73 %29.52 in10.0 miSouth (180°)12.7 mph23.0 mphMostly Cloudy
11:03 AM69.1 °F60.1 °F73 %29.53 in10.0 miSouth (180°)11.5 mphScattered Clouds
11:10 AM69.1 °F60.1 °F73 %29.52 in10.0 miSouth (170°)10.4 mphMostly Cloudy
11:53 AM70.0 °F61.0 °F73 %29.51 in10.0 miSouth (190°)10.4 mphOvercast
12:53 PM72.0 °F62.1 °F71 %29.49 in10.0 miSouth (190°)15.0 mphOvercast
1:42 PM75.0 °F64.0 °F69 %29.48 in10.0 miSouth (190°)16.1 mphMostly Cloudy
1:53 PM75.0 °F64.0 °F69 %29.47 in10.0 miSSW (200°)18.4 mph26.5 mphMostly Cloudy
2:53 PM77.0 °F62.1 °F60 %29.43 in10.0 miSSW (200°)17.3 mph23.0 mphClear
4:53 PM75.9 °F57.0 °F52 %29.44 in10.0 miSSW (210°)16.1 mph29.9 mphClear
5:53 PM77.0 °F44.1 °F31 %29.44 in10.0 miWSW (240°)12.7 mph19.6 mphClear
6:53 PM75.9 °F37.9 °F25 %29.45 in10.0 miWSW (240°)10.4 mphPartly Cloudy
7:53 PM72.0 °F48.9 °F44 %29.49 in10.0 miSSW (200°)9.2 mphMostly Cloudy
8:53 PM71.1 °F43.0 °F36 %29.52 in10.0 miWSW (250°)5.8 mphMostly Cloudy
9:53 PM70.0 °F37.9 °F31 %29.55 in10.0 miWSW (250°)5.8 mphOvercast
10:53 PM66.9 °F37.9 °F34 %29.56 in10.0 miWNW (290°)9.2 mphClear
11:53 PM61.0 °F43.0 °F52 %29.57 in10.0 miSSW (200°)5.8 mphClear
Hourly data recorded from KPOF, located miles away from Malden, Missouri







STORIES FROM OUR PARTNERS